Location: Newark
(37.7733°N, 97.7642°W)
Time: 05:08:52
(UTC+00:00)

ISS - Visible Passes

Search period start: 21 July 2019 00:00
Search period end: 31 July 2019 00:00
Orbit: 409 x 418 km, 51.6° (Epoch: 21 July)

Date Brightness Start Highest point End Pass type
(mag) Time Alt. Az. Time Alt. Az. Time Alt. Az.
21 Jul -1.0 03:10:22 10° W 03:12:59 21° NNW 03:15:35 10° NNE visible
22 Jul -1.7 02:20:29 10° W 02:23:31 31° NNW 02:26:34 10° NNE visible
23 Jul -0.5 03:09:58 10° NW 03:11:25 12° NNW 03:12:52 10° N visible
24 Jul -0.8 02:19:37 10° WNW 02:21:50 16° NNW 02:24:03 10° NNE visible
24 Jul -0.4 05:36:28 10° N 05:37:09 11° N 05:37:09 11° N visible
26 Jul -0.4 02:19:43 10° NNW 02:20:17 10° NNW 02:20:50 10° N visible
26 Jul -0.4 05:33:34 10° NNW 05:34:07 13° NNW 05:34:07 13° NNW visible
27 Jul -0.9 04:44:37 10° NNW 04:46:15 14° NNE 04:46:15 14° NNE visible
28 Jul -0.8 03:55:54 10° N 03:56:48 11° NNE 03:57:43 10° NNE visible
28 Jul -0.3 05:31:02 10° NW 05:31:13 11° NW 05:31:13 11° NW visible
29 Jul -1.1 04:41:52 10° NNW 04:43:25 20° N 04:43:25 20° N visible
30 Jul -1.5 03:52:48 10° NNW 03:55:09 17° NNE 03:55:37 17° NE visible
